Lid_Strength_Index
3 3 4 4 4 4 4 4 3 3 3 3 3 3 3 2 1 1 1 2 2 2 2 2 2 2 3 6 7 1 -1 -0 1 2 3 3 4 4 6 5 5 6 5 5 4 5 5
5 4 3 3 4 4 4 4 4 3 3 3 3 3 3 3 2 2 2 2 2 3 3 3 3 3 5 9 3 0 1 2 2 2 3 3 3 3 5 5 6 5 5 6 5 6 6
5 5 4 4 3 4 4 4 4 4 4 4 3 3 3 3 3 3 3 3 3 3 3 3 3 4 6 7 3 1 2 3 2 2 3 3 2 3 4 6 4 5 7 6 6 6 7
5 5 5 4 4 4 4 4 4 4 4 4 4 4 4 4 4 4 3 3 3 3 3 3 4 4 7 5 3 2 2 3 2 2 2 2 2 3 4 4 5 6 6 10 7 6 6
4 3 3 3 4 4 3 3 4 4 4 4 4 4 4 4 4 4 3 3 4 4 4 4 5 5 8 4 6 4 2 4 2 3 2 3 2 4 4 6 7 7 10 9 9 6 7
3 3 4 3 3 3 2 2 2 3 3 4 5 4 4 4 4 4 4 4 4 5 4 4 5 8 7 9 6 3 3 3 4 3 4 4 4 6 6 7 11 10 9 8 9 7 7
3 3 2 2 3 3 3 3 2 2 2 2 3 4 4 4 4 4 3 2 5 6 5 7 7 8 9 6 4 4 3 4 3 4 6 5 7 8 7 6 7 7 8 9 8 6 7
2 3 3 2 2 2 3 3 3 2 2 2 2 3 3 3 4 3 2 4 5 5 8 5 6 6 6 6 7 5 2 5 5 7 6 7 8 6 6 6 7 8 9 9 7 7 7
3 2 2 3 3 2 2 3 3 2 2 2 2 2 2 3 3 3 2 3 2 3 7 7 5 7 7 6 8 6 4 4 6 7 7 8 7 6 6 7 8 8 8 9 9 7 7
3 3 3 3 2 2 2 2 2 2 2 2 1 2 2 3 3 2 4 2 2 3 10 11 9 7 6 6 8 5 4 5 6 7 7 7 6 7 7 8 7 9 7 8 8 9 11
2 2 2 2 2 2 3 3 2 2 2 2 1 2 2 2 3 3 2 1 2 3 17 10 8 4 6 8 8 7 4 5 6 7 7 8 7 8 8 8 7 8 7 8 8 9 10
1 1 1 1 1 2 2 2 2 2 2 2 1 1 2 2 2 0 -0 -0 1 11 17 11 7 8 8 8 8 7 6 5 4 6 6 7 5 6 6 6 6 6 7 8 8 9 13
1 1 0 0 0 1 1 1 1 1 2 2 1 1 2 2 4 -1 -1 3 11 14 10 11 10 8 9 10 9 8 9 9 9 10 10 8 7 6 6 7 6 7 9 13 14 14 14
1 1 1 1 1 1 1 1 1 1 1 1 1 1 1 2 1 0 2 9 14 12 11 9 9 9 10 10 10 9 9 9 7 7 9 10 12 7 6 7 8 8 9 12 17 15 12
1 1 1 1 1 1 1 1 1 1 1 1 0 2 1 1 0 1 6 14 12 11 9 10 10 11 10 10 10 9 10 10 8 6 9 10 10 7 6 6 6 9 10 8 12 13 13
1 1 1 1 1 1 1 1 1 1 1 1 2 4 3 -1 -1 2 9 12 9 8 7 8 12 10 11 11 11 11 10 9 7 6 5 8 11 8 7 6 7 8 7 11 11 16 17
1 1 1 1 1 1 1 1 1 1 1 1 3 8 3 -1 -0 6 12 10 8 7 6 8 9 10 10 10 10 11 11 9 6 6 5 6 8 10 8 9 9 9 10 9 10 11 15
2 2 2 1 1 1 1 1 1 1 1 2 5 11 2 0 8 8 11 8 7 8 6 7 7 8 9 10 10 11 11 8 5 5 8 6 8 11 10 7 6 7 8 9 12 13 12
2 2 2 1 1 1 1 1 1 1 1 3 8 8 2 2 11 11 7 8 6 8 8 7 8 7 7 9 11 10 9 5 5 6 7 7 9 12 11 9 8 8 8 8 9 10 12
3 2 2 2 1 0 0 0 1 1 1 2 8 11 7 6 5 8 9 9 9 6 7 6 7 6 8 9 8 9 9 7 5 5 6 6 8 10 13 10 8 10 9 8 9 12 12
1 0 0 -0 -0 0 -0 0 0 1 1 3 7 9 8 12 9 8 7 7 10 10 6 6 8 8 9 11 10 10 9 8 7 7 6 6 10 9 8 8 8 8 9 8 9 9 11
1 1 1 0 0 -0 -0 -0 -0 0 1 5 8 7 6 7 7 8 7 9 9 8 7 8 9 8 7 10 9 11 9 9 9 7 7 6 10 8 10 8 8 9 8 8 8 8 8
1 1 1 1 1 0 -0 -0 -0 0 1 5 4 4 5 8 8 9 9 8 8 7 6 5 6 7 9 8 7 6 6 6 7 8 8 8 9 11 12 10 10 13 10 8 8 8 8
0 0 0 0 0 0 -0 0 0 0 1 2 4 4 7 9 8 9 8 7 7 7 8 6 5 7 6 4 4 5 6 6 7 7 6 9 10 10 12 13 19 9 7 7 8 7 7
1 1 0 0 0 0 0 0 0 0 1 2 2 4 6 10 8 7 7 7 7 6 7 6 5 4 3 6 9 11 11 10 10 8 8 7 9 12 16 14 11 9 8 8 9 9 6
1 1 1 0 0 0 0 0 0 0 1 2 3 1 3 7 8 5 7 7 8 8 7 6 4 3 5 8 10 13 14 11 12 11 8 8 8 11 13 15 17 9 6 5 6 11 5
1 1 1 0 0 0 1 0 0 1 1 2 2 0 3 6 5 5 7 9 6 6 8 6 6 7 5 10 14 13 13 9 12 14 14 12 12 14 14 14 11 7 6 5 12 10 5
1 1 1 0 1 1 1 1 0 1 1 2 3 1 3 5 5 4 4 6 6 6 8 6 8 7 8 11 11 11 13 11 11 9 12 12 14 15 13 16 16 6 7 9 7 5 5
1 1 1 1 1 0 1 0 1 1 1 1 4 1 0 3 5 2 2 2 3 3 5 5 6 6 6 9 9 9 13 12 11 14 8 13 10 11 11 10 6 5 5 4 4 4 5